Regional Weather Roundup
Issued by NWS

Home | Current Version | Previous Version | Graphics & Text | Print | Product List | Glossary On
Versions: 1 2 3 4 5 6 7 8 9 10 11 12 13 14 15 16 17 18 19 20 21 22 23 24 25 26 27 28 29 30 31 32 33 34 35 36 37 38 39 40 41 42 43 44 45 46 47 48 49 50
000
ASUS43 KDMX 291808
RWRIA

WEATHER ROUNDUP FOR IOWA
NATIONAL WEATHER SERVICE DES MOINES IA
100 PM CDT THU SEP 29 2016

NOTE: "FAIR" INDICATES FEW OR NO CLOUDS BELOW 12,000 FEET WITH NO
SIGNIFICANT WEATHER AND/OR OBSTRUCTIONS TO VISIBILITY.

* - THESE STATIONS ARE NOT NWS STATIONS...THUS NOT UNDER NWS
QUALITY CONTROL.  THEY ALSO DO NOT REPORT WEATHER SUCH
AS PRECIPITATION OR FOG.

IAZ001>003-012>014-020>022-031>034-043>046-291900-
   NORTHWEST IOWA

CITY           SKY/WX    TMP DP  RH WIND       PRES   REMARKS
CARROLL *        N/A     66  52  59 N13       30.42F
CHEROKEE *       N/A     65  52  61 NE8       30.44F
DENISON *        N/A     66  50  55 VRB7G14   30.40F
LE MARS *        N/A    N/A N/A N/A MISG        N/A
ORANGE CITY *    N/A     64  52  63 CALM      30.45F
SHELDON *        N/A     64  48  55 E8        30.43F
SIOUX CITY       N/A     67  51  56 VRB3      30.44F
6HR MIN TEMP:  42; 6HR MAX TEMP:  67;

SPENCER          N/A     66  52  60 NE9       30.44F
6HR MIN TEMP:  38; 6HR MAX TEMP:  66;

STORM LAKE *     N/A     64  50  59 E7        30.44F
$$

IAZ055>058-069>071-079>083-090>094-291900-
   SOUTHWEST IOWA

CITY           SKY/WX    TMP DP  RH WIND       PRES   REMARKS
ATLANTIC *       N/A     66  48  52 N12G23    30.41F
AUDUBON *        N/A     66  52  59 NE10      30.42F
CLARINDA *       N/A     68  50  52 MISG      30.41F
COUNCIL BLFS * PTSUNNY   66  50  55 N8G14     30.42F
CRESTON *        N/A     66  50  55 N12       30.40S
HARLAN  *        N/A     66  48  52 NE8G16    30.45F
LAMONI           N/A     67  50  54 N13G20    30.37F
6HR MIN TEMP:  49; 6HR MAX TEMP:  68;

RED OAK *        N/A     68  50  52 NE10G18   30.41S
SHENANDOAH *     N/A     66  48  52 NE8G15    30.41S
$$

IAZ047>049-059>061-072>074-084-291900-
   CENTRAL IOWA

CITY           SKY/WX    TMP DP  RH WIND       PRES   REMARKS
AMES             N/A     68  52  56 N10       30.38F
6HR MIN TEMP:  47; 6HR MAX TEMP:  68;

ANKENY *         N/A    N/A N/A N/A MISG        N/A
BOONE *          N/A     64  52  63 N12G18    30.39F
CHARITON *       N/A     70  48  46 N14G20    30.35F
DES MOINES       N/A     70  48  45 N12G20    30.37F
6HR MIN TEMP:  51; 6HR MAX TEMP:  70;

GRINNELL*        N/A     71  50  47 N9        30.35F
KNOXVILLE *      N/A     70  48  46 N12       30.33F
MARSHALLTOWN     N/A     69  51  52 N17G23    30.36F
6HR MIN TEMP:  49; 6HR MAX TEMP:  69;

NEWTON *         N/A     68  50  52 N14       30.35F
PELLA *          N/A     70  49  47 N9        30.35F
PERRY *          N/A     67  51  56 N9        30.41S
$$

IAZ004>006-015-016-023>025-035-036-291900-
   NORTH CENTRAL IOWA

CITY           SKY/WX    TMP DP  RH WIND       PRES   REMARKS
ALGONA *         N/A     57  52  82 N8        30.45F
CLARION *        N/A     66  48  52 VRB7G16   30.41F
ESTHERVILLE      N/A     59  54  83 N10       30.46F
6HR MIN TEMP:  44; 6HR MAX TEMP:  59;

FORT DODGE *     N/A     59  54  82 NW7       30.45S
MASON CITY       N/A     68  47  46 NE12      30.43F
6HR MIN TEMP:  52; 6HR MAX TEMP:  68;

FOREST CITY *    N/A     68  48  49 NE5       30.43F
WEBSTER CITY *   N/A     64  54  68 NW13      30.39F
IOWA FALLS *     N/A     69  45  42 N13G18    30.40F
$$

IAZ007>011-017>019-026>030-037>042-050>054-066-291900-
   NORTHEAST IOWA

CITY           SKY/WX    TMP DP  RH WIND       PRES   REMARKS
CEDAR RAPIDS     N/A     71  52  50 NE17      30.30F
6HR MIN TEMP:  51; 6HR MAX TEMP:  71;

CHARLES CITY *   N/A     68  46  45 N10G20    30.41S
CLINTON *        N/A     71  54  54 NE16      30.26F
DECORAH *        N/A     68  52  56 N13       30.38S
DUBUQUE          N/A     68  51  54 NE14G23   30.31F
6HR MIN TEMP:  50; 6HR MAX TEMP:  68;

MONTICELLO *     N/A     72  50  46 NE15G23   30.30S
OELWEIN *        N/A     70  52  52 N15       30.36F
WATERLOO         N/A     71  50  47 N17       30.36F
6HR MIN TEMP:  48; 6HR MAX TEMP:  71;

$$

IAZ064-065-067-068-078-291900-
   EAST CENTRAL IOWA

CITY           SKY/WX    TMP DP  RH WIND       PRES   REMARKS
DAVENPORT        N/A     70  51  51 NE16G28   30.27F
6HR MIN TEMP:  52; 6HR MAX TEMP:  72;

IOWA CITY        N/A     72  50  45 N16G26    30.30F
6HR MIN TEMP:  53; 6HR MAX TEMP:  72;

MT. PLEASANT *   N/A     76  46  34 N16G22    30.26F
MUSCATINE *      N/A     73  48  40 N16G22    30.26F
QUAD CITIES      N/A     72  51  47 NE14      30.25F
6HR MIN TEMP:  55; 6HR MAX TEMP:  72;

$$

IAZ062-063-075>077-085>089-095>099-291900-
   SOUTHEAST IOWA

CITY           SKY/WX    TMP DP  RH WIND       PRES   REMARKS
BURLINGTON       N/A     71  52  50 N14G24    30.25F
6HR MIN TEMP:  51; 6HR MAX TEMP:  71;

FAIRFIELD *      N/A     73  46  38 N18       30.28F
FORT MADISON *   N/A     72  48  43 N16       30.25F
KEOKUK *         N/A     72  50  46 N12G21    30.24F
OSKALOOSA *      N/A     72  50  45 N12G21    30.32F
OTTUMWA          N/A     73  49  42 N14       30.31F
6HR MIN TEMP:  47; 6HR MAX TEMP:  73;

WASHINGTON *     N/A    N/A N/A N/A MISG        N/A
$$

ABBREVIATIONS USED IN REMARKS
   TC - TEMPERATURES IN CELSIUS
  WCI - WIND CHILL INDEX
   HX - HEAT INDEX
  VSB - VISIBILITY
$$





USA.gov is the U.S. government's official web portal to all federal, state and local government web resources and services.